Home > Weather > Daegu > Past weeks

Flag for South Korea Past Weather in Daegu, South Korea — Yesterday and Last 2 Weeks

Now
82 °F

Partly sunny.


Feels Like: 89 °F
Forecast: 77 / 93 °F
Wind: 1 mph from North

Location: Taegu Ab

Current Time: Jul 26, 2016 at 9:53:06 AM

Latest Report: Jul 26, 2016 at 9:00 AM


Visibility: 5 mi

Pressure: 29.77 "Hg

Humidity: 79%

Dew Point: 75 °F

Location of DaeguLocation

Past Weather in Daegu — Graph

°F

Daegu Temperature Yesterday

Maximum temperature yesterday: 90 °F (at 12:00 PM)
Minimum temperature yesterday: 77 °F (at 12:00 AM)
Average temperature yesterday: 81 °F

High & Low Weather Summary for the Past Weeks

 TemperatureHumidityPressure
High93 °F (Jul 23, 5:00 PM)100% (Jul 17, 3:00 AM)29.92 "Hg (Jul 17, 3:00 AM)
Low68 °F (Jul 15, 5:00 AM)44% (Jul 23, 4:00 PM)29.47 "Hg (Jul 13, 4:00 AM)
Average79 °F74%29.73 "Hg
* Reported Jul 11 8:00 AM — Jul 26 8:00 AM, Daegu, Weather by CustomWeather, © 2016

Note: Actual official high and low records may vary slightly from our data, if they occured in-between our weather recording intervals... More about our weather records

Advertising

Daegu Weather History for the Previous 24 Hours

Scroll right to see more
 ConditionsComfort  
Time TempWeatherWind HumidityBarometerVisibility
8:00 AM
Tue, Jul 26
81 °FPartly sunny.1 mph84%29.80 "Hg5 mi
7:00 AM79 °FPartly sunny.1 mph89%29.80 "Hg5 mi
6:00 AM79 °FPartly sunny.1 mph89%29.80 "Hg5 mi
5:00 AM77 °FPartly cloudy.1 mph94%29.80 "Hg6 mi
4:00 AM79 °FPartly cloudy.1 mph89%29.80 "Hg6 mi
3:00 AM79 °FPartly cloudy.1 mph89%29.80 "Hg6 mi
2:00 AM79 °FPartly cloudy.1 mph89%29.80 "Hg6 mi
1:00 AM79 °FPartly cloudy.1 mph89%29.80 "Hg6 mi
12:00 AM79 °FPartly cloudy.1 mph89%29.80 "Hg6 mi
11:00 PM
Mon, Jul 25
77 °FPassing clouds.1 mph94%29.83 "Hg6 mi
10:00 PM79 °FPassing clouds.2 mph89%29.83 "Hg6 mi
9:00 PM81 °FPassing clouds.5 mph84%29.80 "Hg6 mi
8:00 PM82 °FPassing clouds.3 mph84%29.80 "Hg6 mi
7:00 PM84 °FPartly sunny.1 mph74%29.80 "HgN/A
6:00 PM84 °FBroken clouds.2 mph74%29.80 "HgN/A
5:00 PM82 °FPartly sunny.6 mph79%29.80 "HgN/A
4:00 PM81 °FPartly sunny.8 mph89%29.83 "HgN/A
3:01 PM77 °FPartly sunny.5 mph94%29.83 "Hg4 mi
3:00 PM77 °FHeavy rain. Fog.3 mph94%29.83 "Hg3 mi
2:00 PM82 °FPartly sunny.10 mph79%29.80 "Hg6 mi
1:00 PM90 °FPartly sunny.5 mph63%29.80 "HgN/A
12:00 PM90 °FPartly sunny.7 mph63%29.83 "HgN/A
11:00 AM88 °FPartly sunny.3 mph70%29.83 "Hg5 mi
10:00 AM84 °FBroken clouds.5 mph79%29.83 "Hg5 mi
9:00 AM82 °FPartly sunny.3 mph84%29.83 "Hg4 mi
Weather by CustomWeather, © 2016

See weather overviewHow to use our weather pages